Regional Weather Roundup
Issued by NWS

Home | Current Version | Previous Version | Text Only | Print | Product List | Glossary Off
Versions: 1 2 3 4 5 6 7 8 9 10 11 12 13 14 15 16 17 18 19 20 21 22 23 24 25 26 27 28 29 30 31 32 33 34 35 36 37 38 39 40 41 42 43 44 45 46 47 48 49 50

000
ASUS44 KMEG 231000
RWRTN
TENNESSEE HOURLY STATE WEATHER ROUNDUP
NATIONAL WEATHER SERVICE MEMPHIS TN
500 AM CDT WED MAY 23 2018

TNZ002-004-019-021-049-052-054-088>092-231100-
WEST TENNESSEE

CITY           SKY/WX    TMP DP  RH WIND       PRES   REMARKS
MEMPHIS INTL   FAIR      72  70  93 E3        30.03R
NWS MEMPHIS      N/A     68 N/A N/A MISG        N/A
JACKSON        FOG       67  67 100 CALM      30.05R VSB 1/4
DYERSBURG      FAIR      71  70  96 CALM      30.05R FOG
$$

TNZ008-025-027-028-033-062-065-066-231100-
NORTH MIDDLE TENNESSEE

CITY           SKY/WX    TMP DP  RH WIND       PRES   REMARKS
NASHVILLE      MOCLDY    66  64  93 S3        30.06R
CLARKSVILLE    FAIR      66  63  90 CALM      30.05R
SMYRNA         MOCLDY    65  65 100 NW3       30.07S
CROSSVILLE     FOG       61  60  97 CALM      30.12R VSB 3/4
$$

TNZ061-075-076-078-094-096-097-231100-
SOUTH MIDDLE TENNESSEE

CITY           SKY/WX    TMP DP  RH WIND       PRES   REMARKS
$$

TNZ017-018-042-046-047-231100-
NORTHEAST TENNESSEE

CITY           SKY/WX    TMP DP  RH WIND       PRES   REMARKS
TRI CITIES     MOCLDY    65  65 100 CALM      30.10R
$$

TNZ012-013-036-069-073-074-231100-
CENTRAL EAST TENNESSEE

CITY           SKY/WX    TMP DP  RH WIND       PRES   REMARKS
KNOXVILLE      MOCLDY    65  65 100 SE5       30.08R FOG
OAK RIDGE      FAIR      66  66 100 CALM      30.10R
$$

TNZ083-085-099-231100-
SOUTHEAST TENNESSEE

CITY           SKY/WX    TMP DP  RH WIND       PRES   REMARKS
CHATTANOOGA    MOCLDY    68  65  90 CALM      30.07R
$$

SKY/WX REPORTED AS FAIR MEANS FEW OR NO CLOUDS BELOW
12 THOUSAND FEET.





USA.gov is the U.S. government's official web portal to all federal, state and local government web resources and services.